Hourly Data Report for May 22, 2022

TORONTO INTL A
ONTARIO
Current Station Operator: NAVCAN

43°40'36.000" N
79°37'50.000" W
173.40 m
6158731
71624
YYZ

Download Data

Hourly Data (May 2022)
Hourly Data Report for May 22, 2022
TIME
LST
Temp Definition
°C
Dew Point Definition
°C
Rel Hum Definition
%
Precip. Amount Definition
mm

Wind Dir Definition
10's deg

Wind Spd Definition
km/h
Visibility Definition
km
Stn Press Definition
kPa
Hmdx Definition


Wind Chill Definition


Weather Definition


00:00 16.7 15.3 91   34 3 24.1 99.52     LegendNANA
01:00 17.7 11.9 68   3 5 24.1 99.46     Cloudy
02:00 16.4 13.5 83   35 8 24.1 99.45     LegendNANA
03:00 15.9 10.9 72   36 2 24.1 99.44     LegendNANA
04:00 15.5 13.0 85   15 5 24.1 99.42     Cloudy
05:00 15.6 11.5 77   3 4 24.1 99.34     LegendNANA
06:00 15.6 11.6 77   10 9 16.1 99.37     Drizzle
07:00 14.3 14.1 99   15 7 9.7 99.38     Fog
08:00 14.2 14.2 100   36 2 6.4 99.32     Fog
09:00 13.4 13.0 97   34 36 6.4 99.47     Rain, Fog
10:00 10.3 10.3 100   35 29 16.1 99.59     Cloudy
11:00 11.1 9.9 92   34 24 24.1 99.69     LegendNANA
12:00 11.7 9.7 87   34 28 24.1 99.75     LegendNANA
13:00 12.5 8.9 79   32 19 24.1 99.86     Mostly Cloudy
14:00 14.0 9.0 72   31 17 24.1 99.89     LegendNANA
15:00 15.7 9.8 68   28 12 24.1 99.95     LegendNANA
16:00 16.0 10.2 68   27 5 24.1 99.96     Mostly Cloudy
17:00 15.2 9.4 68   35 24 24.1 100.06     LegendNANA
18:00 14.9 7.8 62   30 27 24.1 100.13     LegendNANA
19:00 13.2 6.1 62   32 30 24.1 100.23     Mostly Cloudy
20:00 12.5 6.4 66   31 16 24.1 100.26     LegendNANA
21:00 11.9 6.2 68   31 14 24.1 100.35     LegendNANA
22:00 10.9 4.9 66   31 13 24.1 100.37     Mostly Cloudy
23:00 9.9 4.2 68   31 14 24.1 100.41     LegendNANA

Notes on Data Quality.

Legend

  • E = Estimated
  • M = Missing
  • NA = Not Available*
  • [empty] = Indicates an unobserved value
Date modified: